Tracking 17145 objects as of 29-May-2015
HD Live streaming from Space Station

SL-14 R/B

Track SL-14 R/B now!
10-day predictions
SL-14 R/B is classified as:


NORAD ID: 20466
Int'l Code: 1990-010B
Perigee: 619.7 km
Apogee: 646.5 km
Inclination: 82.5 °
Period: 97.2 minutes
Semi major axis: 7004 km
RCS: 4.6031 m2 (large)
Launch date: January 30, 1990
Source: Commonwealth of Independent States (former USSR) (CIS)

Note: This is a ROCKET BODY
Your satellite tracking list
Your tracking list is empty





NASA's NSSDC Master Catalog

Two Line Element Set (TLE):
1 20466U 90010B   15148.10367832  .00000197  00000-0  22324-4 0  9991
2 20466 082.5029 355.2761 0019129 286.4379 073.4733 14.81077561366312

Source of the keplerian elements: AFSPC

N2YO: 354